Location: Bottens
(46.6171°N, 6.6605°E)
Time: 17:20:44
(UTC+00:00)

CZ-4C R/B - Pass Details

Date: 20 June 2021
Orbit: 606 x 1396 km, 63.4° (Epoch: 03 August)

Event Time Altitude Azimuth Distance (km) Brightness Sun altitude
Exits shadow 01:11:20 - 140° (SE) 2,563 4.5 -16.6°
Reaches altitude 10° 01:14:39 10° 105° (ESE) 2,231 4.5 -16.4°
Maximum altitude 01:14:53 10° 103° (ESE) 2,238 4.5 -16.4°
Drops below altitude 10° 01:15:05 10° 100° (E) 2,248 4.6 -16.4°
Sets 01:20:42 0° 55° (NE) 3,433 6.4 -16.0°
